Chicopee, MA

8:06 AM EDT on August 18, 2017 (GMT -0400)
Westover Air Reserve Base / Metropolitan Airport

Weather History for KCEF - June, 2012

Change the Weather History Date:

Thursday, June 21, 2012

  Actual Average Record
Temperature  
Mean Temperature 80 °F -  
Max Temperature 95 °F 78 °F 95 °F (2012)
Min Temperature 65 °F 57 °F 44 °F (2014)
Cooling Degree Days 14    
Growing Degree Days 30 (Base 50)    
Moisture  
Dew Point 68 °F    
Average Humidity 67    
Maximum Humidity 98    
Minimum Humidity 36    
Precipitation  
Precipitation 0.00 in - - ()
Sea Level Pressure  
Sea Level Pressure 29.82 in    
Wind  
Wind Speed 3 mph (NW)    
Max Wind Speed 12 mph    
Max Gust Speed 20 mph    
Visibility 10 miles    
Events Rain    
Averages and records for this station are not official NWS values.
T = Trace of Precipitation, MM = Missing Value Source: NWS Daily Summary

Daily Weather History Graph

Daily Weather History Graph

Search for Another Location

Airport or City:

Trip Planner

Search our weather history database for the weather conditions in past years. The results will help you decide how hot, cold, wet, or windy it might be!

Date:

Astronomy

Jun. 21, 2012 Rise Set
Actual Time 5:14 AM EDT 8:30 PM EDT
Civil Twilight 4:39 AM EDT 9:04 PM EDT
Nautical Twilight 3:54 AM EDT 9:49 PM EDT
Astronomical Twilight 3:00 AM EDT 10:43 PM EDT
Moon 7:11 AM EDT (6/21) 9:48 PM EDT (6/21)
Length of Visible Light 16h 25m
Length of Day
15h 16m
Waxing Crescent, 4% of the Moon is Illuminated
Jun 21
Waxing Crescent
Jun 26
First Quarter
Jul 3
Full
Jul 10
Last Quarter
Jul 19
New

Hourly Weather History & Observations

Time (EDT) Temp. Heat Index Dew Point Humidity Pressure Visibility Wind Dir Wind Speed Gust Speed Precip Events Conditions
12:55 AM 72.9 °F - 68.2 °F 85% 29.90 in 10.0 mi Calm Calm - N/A   Clear
1:55 AM 68.9 °F - 67.5 °F 95% 29.90 in 10.0 mi Calm Calm - N/A   Clear
2:55 AM 69.3 °F - 67.8 °F 95% 29.90 in 10.0 mi Calm Calm - N/A   Clear
3:55 AM 68.5 °F - 66.9 °F 95% 29.89 in 10.0 mi Calm Calm - N/A   Clear
4:55 AM 67.1 °F - 66.6 °F 98% 29.89 in 10.0 mi West 3.5 mph - N/A   Clear
5:55 AM 65.3 °F - 64.6 °F 98% 29.89 in 8.0 mi Calm Calm - N/A   Clear
6:55 AM 73.4 °F - 68.9 °F 86% 29.90 in 10.0 mi Calm Calm - N/A   Clear
7:55 AM 81.0 °F 83.4 °F 67.1 °F 63% 29.88 in 10.0 mi WNW 6.9 mph - N/A   Clear
8:55 AM 83.8 °F 86.5 °F 67.3 °F 57% 29.88 in 10.0 mi WNW 9.2 mph - N/A   Clear
9:55 AM 86.2 °F 89.1 °F 67.5 °F 53% 29.87 in 10.0 mi West 11.5 mph - N/A   Clear
10:55 AM 87.6 °F 90.8 °F 67.6 °F 51% 29.85 in 10.0 mi WNW 6.9 mph 19.6 mph N/A   Clear
11:55 AM 89.6 °F 93.4 °F 68.4 °F 49% 29.84 in 10.0 mi Variable 4.6 mph - N/A   Clear
12:03 PM 89.6 °F 93.4 °F 68.0 °F 49% 29.84 in 10.0 mi NNW 8.1 mph - N/A   Clear
12:12 PM 91.4 °F 94.0 °F 66.2 °F 43% 29.84 in 10.0 mi Variable 5.8 mph - N/A   Clear
12:55 PM 92.5 °F 95.4 °F 66.0 °F 42% 29.83 in 10.0 mi NNW 8.1 mph - 0.00 in   Clear
1:55 PM 94.5 °F 96.5 °F 64.2 °F 37% 29.81 in 10.0 mi WNW 10.4 mph 17.3 mph N/A   Clear
2:55 PM 94.5 °F 96.1 °F 63.5 °F 36% 29.79 in 10.0 mi NNW 8.1 mph - N/A   Clear
3:55 PM 94.8 °F 97.1 °F 64.9 °F 37% 29.77 in 10.0 mi NW 6.9 mph - N/A   Clear
4:55 PM 94.8 °F 96.7 °F 63.7 °F 36% 29.76 in 10.0 mi WNW 11.5 mph - N/A   Clear
5:55 PM 93.9 °F 95.6 °F 64.0 °F 37% 29.75 in 10.0 mi WNW 8.1 mph - N/A   Clear
6:55 PM 91.9 °F 93.7 °F 64.2 °F 40% 29.75 in 10.0 mi WNW 6.9 mph - N/A   Clear
7:55 PM 87.8 °F 91.1 °F 67.6 °F 51% 29.75 in 10.0 mi Calm Calm - N/A   Clear
8:55 PM 79.9 °F - 70.5 °F 73% 29.75 in 10.0 mi Calm Calm - N/A   Clear
8:56 PM 78.8 °F - 71.6 °F 78% 29.75 in 10.0 mi Calm Calm - N/A Rain Light Rain
9:01 PM 78.8 °F - 71.6 °F 78% 29.75 in 10.0 mi NE 2.3 mph - N/A   Clear
9:55 PM 74.3 °F - 69.6 °F 85% 29.77 in 10.0 mi Calm Calm - 0.00 in   Clear
10:52 PM 75.2 °F - 69.8 °F 83% 29.76 in 10.0 mi Calm Calm - N/A   Light Drizzle
10:55 PM 74.8 °F - 70.0 °F 85% 29.76 in 10.0 mi NE 2.3 mph - N/A   Light Drizzle
11:35 PM 73.4 °F - 69.8 °F 88% 29.78 in 10.0 mi Calm Calm - N/A Rain Light Rain
11:39 PM 73.4 °F - 69.8 °F 88% 29.77 in 10.0 mi Calm Calm - N/A   Clear
11:55 PM 72.7 °F - 69.8 °F 91% 29.77 in 10.0 mi Calm Calm - 0.00 in   Clear